Back to catalog

FENGYUN 1C DEB

AliveSSO
NORAD 31180·DEBRIS·🇨🇳 China

Launched May 10, 1999 from Taiyuan Satellite Launch Center

Loading…

Next Passes (next 24 hours)

TLE

FreshSource: Space-Track

Epoch: Sep 13, 2026, 07:36 UTC

1 31180U 99025BJJ 26256.31687020  .00000164  00000-0  96987-4 0  9990
2 31180  99.2554  23.2932 0497068  59.9058 332.7289 13.70692219678285

Track FENGYUN 1C DEB in real time with AllMySat

Download on the App Store